Starlink 4699

operational
NORAD ID: 53716 Int'l Des: 2022-107 Owner: SPXS Country: US Constellation: starlink
LEOCIRCULAR

Über Starlink 4699

Beschreibung wird geladen...

Live-Position

3D-Globus wird geladen...

Nächste Überflüge

Höhenverlauf

Altitude vs Time

uPlot chart will show altitude changes over time

Zweizeiliger Elementsatz

1 53716U 22107S 25351.78718768 -.00001613 00000-0 -83306-4 0 9999
2 53716 53.2175 261.4718 0001434 83.3028 276.8127 15.08838636182048
Epoch: 17. Dez. 2025 • Age: 14 hours

Aktueller Status

Höhe 557.4 km
Geschwindigkeit 7.58 km/s
Subsatellitenpunkt -48.60°S, 81.49°W
Startdatum 5. Sept. 2022
Alter 3.2 years
Typ internet

Technische Details

Klassifizierung Payload
Masse 305.00 kg
Trockenmasse 290.00 kg
Gesamtmasse 305.00 kg
Länge 0.20 m
Durchmesser 2.80 m
Spannweite 9.00 m
Form Box + pan
Hersteller SPXS
Bus-Typ Starlink
Phasenstatus In Orbit
Besitzer/Staat SPXS/US

Große Konstellationen

Loading constellations...